Location: RyutenAO
(34.8939°N, 134.0022°E)
Time: 13:56:45
(UTC+09:00)

STRAND 1 - Visible Passes

Search period start: 23 March 2023 00:00
Search period end: 02 April 2023 00:00
Orbit: 766 x 780 km, 98.4° (Epoch: 22 March)

Date Brightness Start Highest point End Pass type
(mag) Time Alt. Az. Time Alt. Az. Time Alt. Az.
23 Mar ? 05:36:28 10° SE 05:41:20 46° ENE 05:46:13 10° N visible
23 Mar ? 19:29:06 10° N 19:33:47 38° WNW 19:38:27 10° SW visible
24 Mar ? 05:03:24 10° ESE 05:07:12 21° ENE 05:11:01 10° NNE visible
24 Mar ? 18:54:25 10° NNE 18:59:31 86° WNW 19:04:35 10° SSW visible
25 Mar ? 20:00:19 10° NNW 20:03:53 20° WNW 20:07:28 10° WSW visible
26 Mar ? 05:32:32 10° SE 05:37:20 42° ENE 05:42:08 10° N visible
26 Mar ? 19:25:01 10° N 19:29:46 42° WNW 19:34:31 10° SW visible
27 Mar ? 04:59:36 10° ESE 05:03:13 20° ENE 05:06:50 10° NNE visible
27 Mar ? 18:50:22 10° NNE 18:55:29 87° ESE 19:00:34 10° SSW visible
28 Mar ? 19:56:07 10° NNW 19:59:54 21° WNW 20:03:39 10° WSW visible
29 Mar ? 05:28:37 10° SE 05:33:20 38° ENE 05:38:02 10° N visible
29 Mar ? 19:20:55 10° N 19:25:45 46° WNW 19:30:35 10° SW visible
30 Mar ? 04:55:50 10° ESE 04:59:14 18° ENE 05:02:37 10° NNE visible
30 Mar ? 18:46:20 10° NNE 18:51:26 80° ESE 18:56:31 10° S visible
30 Mar ? 20:28:52 10° NW 20:29:52 11° WNW 20:30:52 10° WNW visible
31 Mar ? 19:51:56 10° NNW 19:55:53 23° WNW 19:59:49 10° WSW visible
01 Apr ? 05:24:42 10° SE 05:29:18 35° ENE 05:33:54 10° N visible
01 Apr ? 19:16:48 10° N 19:21:43 50° WNW 19:26:36 10° SSW visible
